Back to catalog

SL-8 DEB *

AliveLEO
NORAD 14865·DEBRIS·🇷🇺 Russia

Launched Sep 30, 1975 from Plesetsk Cosmodrome

Loading…

Next Passes (next 24 hours)

TLE

FreshSource: Space-Track

Epoch: Sep 14, 2026, 10:22 UTC

1 14865U 75094E   26257.43217435  .00003155  00000-0  37586-3 0  9996
2 14865  74.0208   4.2283 0001163 336.2666 140.9946 14.84792114761793

Track SL-8 DEB * in real time with AllMySat

Download on the App Store